Hourly Data Report for January 12, 2018

All times are specified in Local Standard Time (LST). Add 1 hour to adjust for Daylight Saving Time where and when it is observed.

TORONTO INTL A
ONTARIO

43°40'36.000" N
79°37'50.000" W
173.40 m
6158731
71624
YYZ

Download Data

Hourly Data (January 2018)
Hourly Data Report for January 12, 2018
Temp Definition
°C
Dew Point Temp Definition
°C
Rel Hum Definition
%
Wind Dir Definition
10's deg

Wind Spd Definition
km/h
Visibility Definition
km
Stn Press Definition
kPa
Hmdx Definition


Wind Chill Definition


Weather Definition


TIME
00:00 9.9 9.2 95 19 16 11.3 98.69     Drizzle
01:00 10.4 9.8 96 18 18 11.3 98.59     Drizzle
02:00 10.3 9.7 96 17 14 12.9 98.50     Drizzle
03:00 10.4 9.8 96 16 14 12.9 98.46     LegendNANA
04:00 11.2 10.7 96 18 14 14.5 98.38     Cloudy
05:00 12.1 11.5 96 20 22 19.3 98.31     Rain
06:00 11.9 11.2 96 21 16 4.8 98.27     Rain,Fog
07:00 11.5 10.8 96 23 11 4.8 98.23     Moderate Rain,Fog
08:00 10.8 10.3 96 30 9 6.4 98.22     Rain,Fog
09:00 5.0 4.3 95 35 29 16.1 98.27     Rain
10:00 3.5 2.7 95 35 29 6.4 98.44     Moderate Rain,Fog
11:00 2.6 1.6 94 34 40 9.7 98.49     Rain,Fog
12:00 0.1 -1.1 92 33 51 9.7 98.55     Rain,Fog
13:00 -2.0 -3.3 91 34 42 9.7 98.62   -10 Moderate Freezing Rain,Fog
14:00 -4.3 -5.9 89 33 38 9.7 98.78   -13 Snow,Ice Pellets
15:00 -6.6 -8.2 88 34 36 2.0 98.93   -16 Snow
16:00 -7.9 -9.8 86 34 44 4.8 99.06   -18 Snow
17:00 -8.3 -10.5 84 35 34 2.8 99.24   -18 Snow
18:00 -8.8 -11.6 80 35 40 24.1 99.42   -19 Blowing Snow
19:00 -9.4 -13.0 76 35 44 24.1 99.40   -20 Blowing Snow
20:00 -9.7 -13.7 73 35 44 24.1 99.57   -21 Blowing Snow
21:00 -10.6 -14.9 71 36 42 24.1 99.55   -22 LegendNANA
22:00 -10.9 -15.4 70 36 30 24.1 99.57   -21 Cloudy
23:00 -11.6 -16.1 69 35 34 24.1 99.64   -22 LegendNANA

Notes on Data Quality.

Legend

  • E = Estimated
  • M = Missing
  • NA = Not Available
Date modified: